Location: York
(31.8935°S, 116.7682°E)
Time: 04:19:51
(UTC+08:00)

Courier 1B - All Passes

Search period start: 14 June 2021 00:00
Search period end: 24 June 2021 00:00
Orbit: 962 x 1209 km, 28.3° (Epoch: 12 June)

Date Brightness Start Highest point End Pass type
(mag) Time Alt. Az. Time Alt. Az. Time Alt. Az.
14 Jun - 01:24:16 10° NNW 01:29:50 29° NNE 01:35:38 10° E night (unlit)
14 Jun - 03:16:50 10° WNW 03:23:26 57° N 03:30:28 10° E visible
14 Jun - 05:10:30 10° W 05:17:27 66° N 05:24:52 10° ENE visible
14 Jun - 07:04:35 10° W 07:11:29 46° NNW 07:18:46 10° NE daylight
14 Jun - 08:59:55 10° WNW 09:05:15 21° NNW 09:10:42 10° NNE daylight
15 Jun - 00:31:21 10° NNW 00:36:15 22° NNE 00:41:16 10° ENE night (unlit)
15 Jun - 02:23:20 10° WNW 02:29:42 50° NNE 02:36:27 10° E visible
15 Jun - 04:16:49 10° W 04:23:37 67° N 04:30:53 10° E visible
15 Jun - 06:10:46 10° W 06:17:39 52° NNW 06:24:58 10° ENE visible
15 Jun - 08:05:31 10° W 08:11:28 26° NNW 08:17:38 10° NNE daylight
15 Jun - 23:38:48 10° N 23:42:41 16° NNE 23:46:38 10° ENE night (unlit)
16 Jun - 01:29:56 10° NW 01:36:02 42° NNE 01:42:25 10° E night (unlit)
16 Jun - 03:23:10 10° WNW 03:29:49 65° N 03:36:53 10° E visible
16 Jun - 05:17:01 10° W 05:23:50 58° N 05:31:06 10° ENE visible
16 Jun - 07:11:24 10° W 07:17:42 32° NNW 07:24:17 10° NE daylight
16 Jun - 09:09:10 10° NW 09:11:19 11° NNW 09:13:28 10° NNW daylight
16 Jun - 22:47:09 10° NNE 22:49:09 11° NNE 22:51:08 10° NE night (unlit)
17 Jun - 00:36:38 10° NW 00:42:24 34° NNE 00:48:21 10° E night (unlit)
17 Jun - 02:29:34 10° WNW 02:36:04 61° N 02:42:55 10° E visible
17 Jun - 04:23:18 10° W 04:30:01 63° N 04:37:11 10° ENE visible
17 Jun - 06:17:27 10° W 06:23:55 39° NNW 06:30:45 10° NE visible
17 Jun - 08:13:26 10° WNW 08:17:34 16° NNW 08:21:49 10° N daylight
17 Jun - 23:43:30 10° NNW 23:48:49 27° NNE 23:54:13 10° E night (unlit)
18 Jun - 01:36:00 10° WNW 01:42:21 55° NNE 01:48:58 10° E night (unlit)
18 Jun - 03:29:37 10° W 03:36:14 66° N 03:43:15 10° ENE visible
18 Jun - 05:23:37 10° W 05:30:09 46° NNW 05:37:05 10° NE visible
18 Jun - 07:18:45 10° WNW 07:23:50 21° NNW 07:29:07 10° NNE daylight
18 Jun - 22:50:35 10° NNW 22:55:15 21° NNE 22:59:56 10° ENE night (unlit)
19 Jun - 00:42:30 10° WNW 00:48:41 48° NNE 00:55:02 10° E night (unlit)
19 Jun - 02:35:58 10° W 02:42:29 66° N 02:49:19 10° E visible
19 Jun - 04:29:51 10° W 04:36:23 52° NNW 04:43:19 10° ENE visible
19 Jun - 06:24:28 10° WNW 06:30:07 26° NNW 06:36:01 10° NNE visible
19 Jun - 21:58:03 10° N 22:01:41 15° NNE 22:05:18 10° ENE night (unlit)
19 Jun - 23:49:04 10° NW 23:55:03 40° NNE 00:01:06 10° E night (unlit)
20 Jun - 01:42:19 10° WNW 01:48:45 64° N 01:55:26 10° E night (unlit)
20 Jun - 03:36:09 10° W 03:42:38 58° N 03:49:29 10° ENE visible
20 Jun - 05:30:26 10° W 05:36:24 32° NNW 05:42:40 10° NE visible
20 Jun - 07:27:58 10° NW 07:29:57 11° NNW 07:31:59 10° NNW daylight
20 Jun - 21:06:35 10° NNE 21:08:07 11° NNE 21:09:37 10° NE night (unlit)
20 Jun - 22:55:44 10° NW 23:01:26 32° NNE 23:07:08 10° E night (unlit)
21 Jun - 00:48:41 10° WNW 00:55:04 59° N 01:01:34 10° E night (unlit)
21 Jun - 02:42:26 10° W 02:48:55 63° N 02:55:40 10° ENE visible
21 Jun - 04:36:33 10° W 04:42:42 39° NNW 04:49:09 10° NE visible
21 Jun - 06:32:22 10° WNW 06:36:15 16° NNW 06:40:16 10° N visible
21 Jun - 22:02:32 10° NNW 22:07:51 26° NNE 22:13:05 10° ENE night (unlit)
21 Jun - 23:55:04 10° WNW 00:01:23 53° NNE 00:07:43 10° E night (unlit)
22 Jun - 01:48:45 10° W 01:55:11 65° N 02:01:50 10° ENE night (unlit)
22 Jun - 03:42:45 10° W 03:49:00 45° NNW 03:55:33 10° NE visible
22 Jun - 05:37:47 10° WNW 05:42:35 20° NNW 05:47:34 10° NNE visible
22 Jun - 21:09:34 10° NNW 21:14:15 20° NNE 21:18:51 10° ENE visible
22 Jun - 23:01:30 10° NW 23:07:44 46° NNE 23:13:53 10° E night (unlit)
23 Jun - 00:55:03 10° W 01:01:29 65° N 01:08:01 10° E night (unlit)
23 Jun - 02:49:00 10° W 02:55:18 52° NNW 03:01:52 10° ENE visible
23 Jun - 04:43:33 10° WNW 04:48:55 26° NNW 04:54:30 10° NNE visible
23 Jun - 20:16:58 10° N 20:20:39 15° NNE 20:24:16 10° ENE visible
23 Jun - 22:07:59 10° NW 22:14:05 39° NNE 22:20:03 10° E night (unlit)
